Home   Weather   Milan   Past weeks

Flag for Italy Past Weather in Milan, Italy — Yesterday and Last 2 Weeks

Now
61 °F

Partly cloudy.


Feels Like: 61 °F
Forecast: 54 / 66 °F
Wind: 1 mph from North

Location: Milan / Linate

Current Time: Apr 23, 2017 at 11:59:52 pm

Latest Report: Apr 23, 2017 at 11:20 pm


Visibility: N/A

Pressure: 30.07 "Hg

Humidity: 59%

Dew Point: 46 °F

Location of MilanLocation

Past Weather in Milan — Graph

°F

Milan Temperature Yesterday

Maximum temperature yesterday: 72 °F (at 4:20 pm)
Minimum temperature yesterday: 43 °F (at 4:20 am)
Average temperature yesterday: 57 °F

High & Low Weather Summary for the Past Weeks

 TemperatureHumidityPressure
High77 °F (Apr 10, 4:20 pm)100% (Apr 16, 3:50 am)30.39 "Hg (Apr 16, 3:50 am)
Low34 °F (Apr 20, 6:20 am)11% (Apr 18, 3:50 pm)29.77 "Hg (Apr 13, 3:50 pm)
Average60 °F50%30.03 "Hg
* Reported Apr 8 10:20 pm — Apr 23 10:50 pm, Milan, Weather by CustomWeather, © 2017

Note: Actual official high and low records may vary slightly from our data, if they occured in-between our weather recording intervals... More about our weather records

Advertising

Milan Weather History for the Previous 24 Hours

Scroll right to see more
 ConditionsComfort  
Time TempWeatherWind HumidityBarometerVisibility
10:50 pm
Sun, Apr 23
61 °FPartly cloudy.2 mph59%30.07 "HgN/A
10:20 pm61 °FPartly cloudy.2 mph59%30.07 "HgN/A
9:50 pm61 °FPartly cloudy.5 mph59%30.04 "HgN/A
9:20 pm63 °FPartly cloudy.8 mph56%30.04 "HgN/A
8:50 pm63 °FPartly cloudy.9 mph56%30.01 "HgN/A
8:20 pm64 °FPassing clouds.9 mph52%30.01 "HgN/A
7:50 pm66 °FPassing clouds.9 mph49%29.98 "HgN/A
7:20 pm68 °FPassing clouds.9 mph46%29.98 "HgN/A
6:50 pm68 °FScattered clouds.12 mph43%29.98 "HgN/A
6:20 pm70 °FScattered clouds.10 mph40%29.98 "HgN/A
5:50 pm72 °FScattered clouds.9 mph36%29.98 "HgN/A
5:20 pm72 °FPassing clouds.9 mph33%29.95 "HgN/A
4:50 pm72 °FPassing clouds.7 mph31%29.95 "HgN/A
4:20 pm72 °FPassing clouds.7 mph31%29.95 "HgN/A
3:50 pm72 °FPassing clouds.6 mph33%29.98 "HgN/A
3:20 pm72 °FScattered clouds.7 mph33%29.98 "HgN/A
2:50 pm72 °FPassing clouds.8 mph36%29.98 "HgN/A
2:20 pm70 °FPassing clouds.6 mph38%29.98 "HgN/A
1:50 pm70 °FScattered clouds.8 mph38%30.01 "HgN/A
1:20 pm68 °FScattered clouds.8 mph43%30.01 "HgN/A
12:50 pm66 °FScattered clouds.7 mph49%30.01 "HgN/A
12:20 pm64 °FScattered clouds.7 mph52%30.01 "HgN/A
11:50 am66 °FPassing clouds.9 mph49%30.01 "HgN/A
11:20 am63 °FPassing clouds.9 mph59%30.01 "HgN/A
10:50 am63 °FPassing clouds.6 mph59%30.01 "HgN/A
10:20 am61 °FSunny.6 mph59%30.01 "Hg10 mi
9:50 am59 °FSunny.6 mph63%30.01 "Hg10 mi
8:50 am57 °FPassing clouds.5 mph67%30.01 "HgN/A
8:20 am55 °FSunny.3 mph72%30.01 "Hg10 mi
7:50 am52 °FSunny.2 mph88%30.01 "Hg10 mi
7:20 am52 °FSunny.7 mph88%30.01 "Hg10 mi
6:50 am46 °FFog.No wind100%29.98 "Hg5 mi
6:20 am45 °FFog.No wind100%29.98 "Hg4 mi
5:50 am46 °FClear.1 mph93%29.98 "Hg10 mi
5:20 am48 °FClear.No wind94%29.98 "Hg10 mi
4:50 am48 °FClear.No wind94%29.98 "Hg10 mi
4:20 am50 °FClear.2 mph82%29.98 "Hg10 mi
3:50 am50 °FClear.2 mph82%29.98 "Hg10 mi
3:20 am52 °FClear.1 mph82%29.98 "Hg10 mi
2:50 am54 °FClear.No wind72%30.01 "Hg10 mi
2:20 am55 °FClear.1 mph72%30.01 "Hg10 mi
1:50 am55 °FClear.1 mph72%30.01 "Hg10 mi
1:20 am55 °FClear.2 mph67%30.01 "Hg10 mi
12:50 am55 °FPassing clouds.3 mph67%30.01 "HgN/A
12:20 am57 °FClear.3 mph63%30.01 "Hg10 mi
11:50 pm
Sat, Apr 22
57 °FPassing clouds.6 mph63%30.01 "HgN/A
11:20 pm57 °FPassing clouds.7 mph63%30.01 "HgN/A
Weather by CustomWeather, © 2017

See weather overviewHow to use our weather pages